FW9474 Weather Reports


time (UTC)temp
C
wind
direction
speed
KPH
gust
KPH
rain 1hr
cm
rain 24hr
cm
rain mn
cm
humidity
%
barometer
mb
20260509031532 12 0 0.0 0.0 0.00 0.00 0.00 95 1015.5
20260509030030 13 0 0.0 0.0 0.00 0.00 0.00 94 1015.5
20260509024530 13 0 0.0 0.0 0.00 0.00 0.00 93 1015.5
20260509023029 13 0 0.0 0.0 0.00 0.00 0.00 93 1015.3
20260509021528 13 0 0.0 0.0 0.00 0.00 0.00 93 1015.5
20260509020031 13 0 0.0 0.0 0.00 0.00 0.00 92 1015.1
20260509014530 13 0 0.0 0.0 0.00 0.00 0.00 92 1015.1
20260509013031 13 0 0.0 0.0 0.00 0.00 0.00 91 1015.2
20260509011534 14 0 0.0 0.0 0.00 0.00 0.00 90 1014.9
20260509010035 14 0 0.0 0.0 0.00 0.00 0.00 89 1014.9
20260509004531 15 0 0.0 0.0 0.00 0.00 0.00 88 1014.8
20260509003034 15 0 0.0 0.0 0.00 0.00 0.00 87 1014.8
20260509001530 15 0 0.0 0.0 0.00 0.00 0.00 85 1014.7
20260509000027 16 0 0.0 0.0 0.00 0.00 0.00 81 1014.7
20260508234531 16 0 0.0 0.0 0.00 0.00 0.00 81 1014.7
20260508233035 17 0 0.0 0.0 0.00 0.00 0.00 77 1014.4
20260508231530 17 0 0.0 0.0 0.00 0.00 0.00 76 1014.4
20260508230028 17 188 1.6 4.8 0.00 0.00 0.00 73 1014.6
20260508224527 18 198 1.6 6.4 0.00 0.00 0.00 70 1014.4
20260508223030 18 200 1.6 6.4 0.00 0.00 0.00 68 1014.5
20260508221529 18 212 1.6 4.8 0.00 0.00 0.00 66 1014.5
20260508220030 18 204 3.2 6.4 0.00 0.00 0.00 64 1014.5
20260508214532 19 196 1.6 6.4 0.00 0.00 0.00 62 1014.3
20260508213028 19 197 1.6 9.7 0.00 0.00 0.00 61 1014.3
20260508211530 19 207 4.8 16.1 0.00 0.00 0.00 59 1014.4
20260508210035 20 244 6.4 14.5 0.00 0.00 0.00 56 1014.5
20260508204535 20 0 3.2 14.5 0.00 0.00 0.00 58 1014.5
20260508203035 20 197 3.2 12.9 0.00 0.00 0.00 56 1014.5
20260508201531 20 212 1.6 11.3 0.00 0.00 0.00 55 1014.7
20260508200029 20 155 6.4 14.5 0.00 0.00 0.00 58 1015.0
20260508194528 19 84 4.8 17.7 0.00 0.00 0.00 56 1015.1
20260508193030 20 122 4.8 12.9 0.00 0.00 0.00 56 1015.4
20260508191535 20 299 3.2 12.9 0.00 0.00 0.00 54 1015.7
20260508190031 20 212 1.6 11.3 0.00 0.00 0.00 58 1015.7
20260508184530 20 76 6.4 16.1 0.00 0.00 0.00 54 1016.0
20260508183029 19 94 9.7 17.7 0.00 0.00 0.00 55 1016.1
20260508181539 20 352 6.4 16.1 0.00 0.00 0.00 55 1016.5
20260508180030 19 253 3.2 14.5 0.00 0.00 0.00 56 1016.6
20260508174537 19 132 8.0 19.3 0.00 0.00 0.00 57 1017.0
20260508173028 19 180 4.8 14.5 0.00 0.00 0.00 56 1016.8
20260508171531 18 234 4.8 17.7 0.00 0.00 0.00 56 1017.1
20260508170030 18 212 9.7 19.3 0.00 0.00 0.00 54 1017.1
20260508164529 18 231 6.4 16.1 0.00 0.00 0.00 54 1017.4
20260508163029 18 302 6.4 16.1 0.00 0.00 0.00 56 1017.6
20260508161545 18 296 9.7 17.7 0.00 0.00 0.00 54 1017.9
20260508160028 18 273 8.0 14.5 0.00 0.00 0.00 57 1017.9
20260508154530 17 243 4.8 17.7 0.00 0.00 0.00 56 1018.2
20260508153049 17 228 1.6 20.9 0.00 0.00 0.00 57 1018.3
20260508151527 17 205 3.2 11.3 0.00 0.00 0.00 56 1018.4
20260508150029 17 127 1.6 9.7 0.00 0.00 0.00 56 1018.4
20260508144529 16 200 6.4 11.3 0.00 0.00 0.00 58 1018.4
20260508143045 16 218 6.4 9.7 0.00 0.00 0.00 62 1018.4
20260508141531 16 142 4.8 11.3 0.00 0.00 0.00 65 1018.3
20260508140030 15 0 1.6 11.3 0.00 0.00 0.00 64 1018.6
20260508134534 15 346 4.8 14.5 0.00 0.10 0.00 61 1018.7
20260508133028 15 92 3.2 11.3 0.00 0.10 0.00 63 1018.7
20260508131529 15 80 4.8 9.7 0.00 0.10 0.00 66 1018.7
20260508130028 14 57 1.6 6.4 0.00 0.10 0.00 75 1018.4
20260508124533 13 55 1.6 4.8 0.00 0.23 0.00 77 1018.2
20260508123029 11 0 0.0 0.0 0.00 0.23 0.00 90 1018.1
20260508121530 10 0 0.0 0.0 0.00 0.23 0.00 92 1017.9
20260508120028 10 0 0.0 0.0 0.00 0.23 0.00 93 1017.8
20260508114530 9 0 0.0 0.0 0.00 0.43 0.00 95 1017.6
20260508113029 8 258 0.0 3.2 0.00 0.43 0.00 96 1017.4
20260508111528 7 0 0.0 3.2 0.00 0.43 0.00 96 1017.1
20260508110034 7 281 1.6 3.2 0.00 0.43 0.00 96 1016.6
20260508104527 7 0 0.0 0.0 0.00 0.64 0.00 94 1016.5
20260508103039 8 0 0.0 0.0 0.00 0.64 0.00 94 1016.1
20260508101531 8 0 0.0 0.0 0.00 0.64 0.00 96 1016.0
20260508100046 7 0 0.0 0.0 0.00 0.64 0.00 96 1015.9
20260508094531 7 0 0.0 0.0 0.00 1.04 0.00 96 1015.7
20260508093036 7 0 0.0 0.0 0.00 1.04 0.00 96 1015.5
20260508091529 7 0 0.0 0.0 0.00 1.04 0.00 95 1015.6
20260508090033 8 0 0.0 0.0 0.00 1.04 0.00 95 1015.6
20260508084530 8 0 0.0 0.0 0.00 1.32 0.00 96 1015.2
20260508083028 8 0 0.0 0.0 0.00 1.32 0.00 95 1015.4
20260508081530 8 0 0.0 0.0 0.00 1.32 0.00 94 1015.3
20260508080027 8 0 0.0 0.0 0.00 1.32 0.00 94 1015.3
20260508074534 8 0 0.0 0.0 0.00 1.75 0.00 94 1015.2
20260508073027 9 0 0.0 0.0 0.00 1.75 0.00 93 1015.3
20260508071533 9 0 0.0 0.0 0.00 1.75 0.00 92 1015.2
20260508070030 9 0 0.0 3.2 0.00 1.75 0.00 92 1015.1
20260508064531 10 0 0.0 4.8 0.00 2.16 0.00 93 1015.0
20260508063034 9 0 0.0 6.4 0.00 2.16 0.00 93 1014.9
20260508061529 10 0 0.0 0.0 0.00 2.16 0.00 93 1014.9
20260508060029 9 0 0.0 0.0 0.00 2.16 0.00 94 1014.9
20260508054605 10 0 0.0 0.0 0.00 3.28 0.00 93 1015.0
20260508053045 10 0 0.0 0.0 0.00 3.28 0.00 93 1014.9
20260508051530 10 0 0.0 0.0 0.00 3.28 0.00 91 1015.2
20260508050030 10 0 0.0 0.0 0.00 3.28 0.00 91 1014.7
20260508044529 11 0 0.0 0.0 0.00 3.86 0.00 89 1014.9
20260508043035 11 0 0.0 0.0 0.00 3.86 0.00 85 1014.7
20260508041531 12 0 0.0 0.0 0.00 3.86 0.00 83 1014.6
20260508040032 12 0 0.0 0.0 0.00 3.86 0.00 84 1014.6
20260508034536 12 0 0.0 0.0 0.00 3.86 3.86 83 1014.4
20260508033033 13 0 0.0 4.8 0.00 3.86 3.86 77 1014.6